Content
SEND FEEDBACK

Daily
Averages
Monthly
Summary
Mauritania

PORT-ETIENNE, MAURITANIA


Home > Africa > Mauritania
Elevation: 10 feet     Latitude: 20 54N     Longitude: 017 06W

WEATHER
 
SELECT A DAY
Number of Records: 120,960;   Date Range: 7/1/96 - 10/20/14
 
SHARE

PRINT THIS DATA

[ ← Previous Day ]
WEATHER ALMANAC - SEPTEMBER 1, 2013
[ Next Day → ]
[ °C ]   °F
Weather ElementAverageHighLow
Temperature78.3 °F86 °F (12:00 pm)73.4 °F (2:00 am)
Dewpoint70.1 °F73.4 °F (9:00 am)68 °F (12:00 am)
Humidity75 %88 % (2:00 am)48 % (12:00 pm)
Barometer29.86 in29.91 in (12:00 pm)29.83 in (3:00 am)
Wind Speed8.7 mph15 mph (8:00 pm)
Weather ElementAverage
Visibility4.4 mi
Wind DirectionWSW (239.7 °)

Weather ElementTotal
Precipitation---
Cooling Degree Days14.7 (Base 65)
Growing Degree Days29.7 (Base 50)
Averaged from 29 records on September 1, 2013
WEATHER CONDITIONS BREAKOUT
WIND DIRECTION BREAKOUT
WEATHER BY HOUR - SEPTEMBER 1, 2013
[ °C ]   °F
Local TimeTemperatureDewpointHumidityBarometerVisibilityWind DirectionWind SpeedGust SpeedPrecipitationEventsConditions
12:00 AM75.2 °F68.0 °F78 %29.89 in5.0 miNW (310°)11.5 mph
1:00 AM75.2 °F68.0 °F78 %29.86 in5.0 miNW (320°)11.5 mph
2:00 AM73.4 °F69.8 °F88 %29.86 in5.0 miNW (320°)6.9 mph
3:00 AM73.4 °F69.8 °F88 %29.83 in5.0 miNW (310°)5.8 mph
4:00 AM75.2 °F69.8 °F83 %29.86 in5.0 miNorth (350°)5.8 mph
5:00 AM73.4 °F69.8 °F88 %29.83 in5.0 miWNW (290°)5.8 mph
6:00 AM73.4 °F69.8 °F88 %29.83 in5.0 miWSW (250°)4.6 mph
7:00 AM73.4 °F69.8 °F88 %29.83 in5.0 miWest (260°)6.9 mph
8:00 AM75.2 °F69.8 °F83 %29.86 in5.0 miNorth (360°)9.2 mph
9:00 AM79.0 °F73.0 °F78 %29.90 in5.0 miNNE (20°)6.9 mphPartly Cloudy
9:00 AM78.8 °F73.4 °F83 %29.89 in5.0 miNNE (20°)6.9 mph
10:00 AM80.6 °F71.6 °F74 %29.89 in5.0 miNE (50°)5.8 mph
11:00 AM84.2 °F71.6 °F66 %29.89 in5.0 miNNE (20°)4.6 mph
12:00 PM86.0 °F69.8 °F58 %29.89 in5.0 miESE (110°)4.6 mph
12:00 PM86.0 °F69.0 °F48 %29.91 in5.0 miESE (110°)4.6 mphPartly Cloudy
1:00 PM86.0 °F71.6 °F62 %29.89 in5.0 miSE (140°)5.8 mph
2:00 PM84.2 °F73.4 °F70 %29.86 in3.7 miSSW (200°)5.8 mphWidespread Dust
3:00 PM85.0 °F72.0 °F57 %29.86 in4.0 miWSW (250°)9.2 mphWidespread Dust
3:00 PM84.2 °F71.6 °F66 %29.83 in3.7 miSW (230°)10.4 mphWidespread Dust
4:00 PM82.4 °F71.6 °F70 %29.83 in3.7 miWest (270°)11.5 mphWidespread Dust
5:00 PM80.6 °F69.8 °F70 %29.83 in3.7 miWNW (300°)12.7 mphWidespread Dust
6:00 PM78.8 °F68.0 °F69 %29.83 in3.7 miWNW (290°)12.7 mphWidespread Dust
6:00 PM79.0 °F70.0 °F66 %29.84 in4.0 miWNW (300°)11.5 mphWidespread Dust
7:00 PM77.0 °F69.8 °F78 %29.83 in3.7 miWNW (290°)13.8 mphWidespread Dust
8:00 PM75.2 °F68.0 °F78 %29.83 in3.7 miWNW (300°)15.0 mphWidespread Dust
9:00 PM75.0 °F69.0 °F77 %29.86 in4.0 miCalm (320°)Widespread Dust
9:00 PM75.2 °F68.0 °F78 %29.86 in3.7 miNW (320°)15.0 mphWidespread Dust
10:00 PM73.4 °F68.0 °F83 %29.86 in3.7 miNW (320°)13.8 mphWidespread Dust
11:00 PM73.4 °F68.0 °F83 %29.86 in3.7 miNW (320°)15.0 mphWidespread Dust
Hourly data recorded from GQPP, located miles away from Port-Etienne, Mauritania







STORIES FROM OUR PARTNERS